Tracking 18856 objects as of 12-Dec-2017
HD Live streaming from Space Station
objects crossing your sky now

SL-19 R/B

Track SL-19 R/B now!
10-day predictions


NORAD ID: 36589
Int'l Code: 2010-023B
Perigee: 881.4 km
Apogee: 1,216.1 km
Inclination: 100.5 °
Period: 106.0 minutes
Semi major axis: 7419 km
RCS: 6.505 m2 (large)
Launch date: June 2, 2010
Source: Commonwealth of Independent States (former USSR) (CIS)
Launch site: PLESETSK MISSILE AND SPACE COMPLEX (PKMTR)

Note: This is a ROCKET BODY
aabbcc
Your satellite tracking list
Your tracking list is empty




NASA's NSSDC Master Catalog

Two Line Element Set (TLE):
1 36589U 10023B   17345.27949505 -.00000056 +00000-0 -60099-5 0  9990
2 36589 100.4957 044.0515 0225513 008.9832 035.9903 13.58370688373399
Source of the keplerian elements: AFSPC